Year,Month,Day,Hour,Minute,Value (Times are PST for temperature in C)
2020,04,11,00,00,7.60
2020,04,11,00,01,7.60
2020,04,11,00,02,7.60
2020,04,11,00,03,7.50
2020,04,11,00,04,7.50
2020,04,11,00,05,7.40
2020,04,11,00,06,7.40
2020,04,11,00,07,7.40
2020,04,11,00,08,7.40
2020,04,11,00,09,7.50
2020,04,11,00,10,7.50
2020,04,11,00,11,7.50
2020,04,11,00,12,7.60
2020,04,11,00,13,7.60
2020,04,11,00,14,7.60
2020,04,11,00,15,7.60
2020,04,11,00,16,7.70
2020,04,11,00,17,7.70
2020,04,11,00,18,7.70
2020,04,11,00,19,7.70
2020,04,11,00,20,7.70
2020,04,11,00,21,7.70
2020,04,11,00,22,7.70
2020,04,11,00,23,7.60
2020,04,11,00,24,7.60
2020,04,11,00,25,7.60
2020,04,11,00,26,7.60
2020,04,11,00,27,7.60
2020,04,11,00,28,7.60
2020,04,11,00,29,7.60
2020,04,11,00,30,7.60
2020,04,11,00,31,7.60
2020,04,11,00,32,7.60
2020,04,11,00,33,7.60
2020,04,11,00,34,7.50
2020,04,11,00,35,7.60
2020,04,11,00,36,7.60
2020,04,11,00,37,7.50
2020,04,11,00,38,7.50
2020,04,11,00,39,7.50
2020,04,11,00,40,7.40
2020,04,11,00,41,7.40
2020,04,11,00,42,7.40
2020,04,11,00,43,7.40
2020,04,11,00,44,7.40
2020,04,11,00,45,7.40
2020,04,11,00,46,7.40
2020,04,11,00,47,7.30
2020,04,11,00,48,7.30
2020,04,11,00,49,7.30
2020,04,11,00,50,7.30
2020,04,11,00,51,7.30
2020,04,11,00,52,7.30
2020,04,11,00,53,7.30
2020,04,11,00,54,7.30
2020,04,11,00,55,7.20
2020,04,11,00,56,7.20
2020,04,11,00,57,7.20
2020,04,11,00,58,7.20
2020,04,11,00,59,7.20
2020,04,11,01,00,7.20
2020,04,11,01,01,7.20
2020,04,11,01,02,7.20
2020,04,11,01,03,7.10
2020,04,11,01,04,7.20
2020,04,11,01,05,7.20
2020,04,11,01,06,7.10
2020,04,11,01,07,7.10
2020,04,11,01,08,7.10
2020,04,11,01,09,7.10
2020,04,11,01,10,7.10
2020,04,11,01,11,7.10
2020,04,11,01,12,7.10
2020,04,11,01,13,7.10
2020,04,11,01,14,7.10
2020,04,11,01,15,7.10
2020,04,11,01,16,7.00
2020,04,11,01,17,7.00
2020,04,11,01,18,7.00
2020,04,11,01,19,7.00
2020,04,11,01,20,7.00
2020,04,11,01,21,7.00
2020,04,11,01,22,7.00
2020,04,11,01,23,7.00
2020,04,11,01,24,7.00
2020,04,11,01,25,7.00
2020,04,11,01,26,7.00
2020,04,11,01,27,7.00
2020,04,11,01,28,7.00
2020,04,11,01,29,7.00
2020,04,11,01,30,7.00
2020,04,11,01,31,7.00
2020,04,11,01,32,6.90
2020,04,11,01,33,6.90
2020,04,11,01,34,6.90
2020,04,11,01,35,6.90
2020,04,11,01,36,6.80
2020,04,11,01,37,6.80
2020,04,11,01,38,6.80
2020,04,11,01,39,6.70
2020,04,11,01,40,6.70
2020,04,11,01,41,6.70
2020,04,11,01,42,6.70
2020,04,11,01,43,6.60
2020,04,11,01,44,6.60
2020,04,11,01,45,6.60
2020,04,11,01,46,6.50
2020,04,11,01,47,6.50
2020,04,11,01,48,6.50
2020,04,11,01,49,6.40
2020,04,11,01,50,6.40
2020,04,11,01,51,6.50
2020,04,11,01,52,6.50
2020,04,11,01,53,6.60
2020,04,11,01,54,6.70
2020,04,11,01,55,6.90
2020,04,11,01,56,6.90
2020,04,11,01,57,7.00
2020,04,11,01,58,7.00
2020,04,11,01,59,7.00
2020,04,11,02,00,7.00
2020,04,11,02,01,7.00
2020,04,11,02,02,7.00
2020,04,11,02,03,7.00
2020,04,11,02,04,7.00
2020,04,11,02,05,6.90
2020,04,11,02,06,6.90
2020,04,11,02,07,6.90
2020,04,11,02,08,6.80
2020,04,11,02,09,6.80
2020,04,11,02,10,6.70
2020,04,11,02,11,6.70
2020,04,11,02,12,6.70
2020,04,11,02,13,6.70
2020,04,11,02,14,6.60
2020,04,11,02,15,6.60
2020,04,11,02,16,6.60
2020,04,11,02,17,6.60
2020,04,11,02,18,6.60
2020,04,11,02,19,6.50
2020,04,11,02,20,6.50
2020,04,11,02,21,6.50
2020,04,11,02,22,6.50
2020,04,11,02,23,6.50
2020,04,11,02,24,6.50
2020,04,11,02,25,6.50
2020,04,11,02,26,6.50
2020,04,11,02,27,6.50
2020,04,11,02,28,6.50
2020,04,11,02,29,6.60
2020,04,11,02,30,6.60
2020,04,11,02,31,6.60
2020,04,11,02,32,6.60
2020,04,11,02,33,6.60
2020,04,11,02,34,6.60
2020,04,11,02,35,6.60
2020,04,11,02,36,6.60
2020,04,11,02,37,6.60
2020,04,11,02,38,6.60
2020,04,11,02,39,6.50
2020,04,11,02,40,6.50
2020,04,11,02,41,6.50
2020,04,11,02,42,6.50
2020,04,11,02,43,6.50
2020,04,11,02,44,6.50
2020,04,11,02,45,6.50
2020,04,11,02,46,6.50
2020,04,11,02,47,6.40
2020,04,11,02,48,6.40
2020,04,11,02,49,6.40
2020,04,11,02,50,6.40
2020,04,11,02,51,6.40
2020,04,11,02,52,6.40
2020,04,11,02,53,6.40
2020,04,11,02,54,6.40
2020,04,11,02,55,6.30
2020,04,11,02,56,6.30
2020,04,11,02,57,6.30
2020,04,11,02,58,6.30
2020,04,11,02,59,6.30
2020,04,11,03,00,6.30
2020,04,11,03,01,6.30
2020,04,11,03,02,6.20
2020,04,11,03,03,6.20
2020,04,11,03,04,6.20
2020,04,11,03,05,6.30
2020,04,11,03,06,6.30
2020,04,11,03,07,6.30
2020,04,11,03,08,6.30
2020,04,11,03,09,6.40
2020,04,11,03,10,6.40
2020,04,11,03,11,6.40
2020,04,11,03,12,6.40
2020,04,11,03,13,6.40
2020,04,11,03,14,6.40
2020,04,11,03,15,6.40
2020,04,11,03,16,6.40
2020,04,11,03,17,6.40
2020,04,11,03,18,6.40
2020,04,11,03,19,6.40
2020,04,11,03,20,6.40
2020,04,11,03,21,6.30
2020,04,11,03,22,6.30
2020,04,11,03,23,6.30
2020,04,11,03,24,6.30
2020,04,11,03,25,6.40
2020,04,11,03,26,6.30
2020,04,11,03,27,6.30
2020,04,11,03,28,6.30
2020,04,11,03,29,6.30
2020,04,11,03,30,6.30
2020,04,11,03,31,6.30
2020,04,11,03,32,6.40
2020,04,11,03,33,6.30
2020,04,11,03,34,6.40
2020,04,11,03,35,6.40
2020,04,11,03,36,6.40
2020,04,11,03,37,6.40
2020,04,11,03,38,6.40
2020,04,11,03,39,6.40
2020,04,11,03,40,6.40
2020,04,11,03,41,6.40
2020,04,11,03,42,6.40
2020,04,11,03,43,6.40
2020,04,11,03,44,6.40
2020,04,11,03,45,6.40
2020,04,11,03,46,6.40
2020,04,11,03,47,6.40
2020,04,11,03,48,6.50
2020,04,11,03,49,6.40
2020,04,11,03,50,6.40
2020,04,11,03,51,6.40
2020,04,11,03,52,6.40
2020,04,11,03,53,6.40
2020,04,11,03,54,6.40
2020,04,11,03,55,6.40
2020,04,11,03,56,6.40
2020,04,11,03,57,6.40
2020,04,11,03,58,6.40
2020,04,11,03,59,6.40
2020,04,11,04,00,6.40
2020,04,11,04,01,6.40
2020,04,11,04,02,6.40
2020,04,11,04,03,6.40
2020,04,11,04,04,6.40
2020,04,11,04,05,6.50
2020,04,11,04,06,6.50
2020,04,11,04,07,6.50
2020,04,11,04,08,6.50
2020,04,11,04,09,6.50
2020,04,11,04,10,6.50
2020,04,11,04,11,6.50
2020,04,11,04,12,6.40
2020,04,11,04,13,6.40
2020,04,11,04,14,6.40
2020,04,11,04,15,6.40
2020,04,11,04,16,6.40
2020,04,11,04,17,6.40
2020,04,11,04,18,6.40
2020,04,11,04,19,6.30
2020,04,11,04,20,6.30
2020,04,11,04,21,6.30
2020,04,11,04,22,6.30
2020,04,11,04,23,6.30
2020,04,11,04,24,6.30
2020,04,11,04,25,6.30
2020,04,11,04,26,6.30
2020,04,11,04,27,6.30
2020,04,11,04,28,6.30
2020,04,11,04,29,6.30
2020,04,11,04,30,6.30
2020,04,11,04,31,6.20
2020,04,11,04,32,6.20
2020,04,11,04,33,6.20
2020,04,11,04,34,6.20
2020,04,11,04,35,6.20
2020,04,11,04,36,6.20
2020,04,11,04,37,6.20
2020,04,11,04,38,6.20
2020,04,11,04,39,6.20
2020,04,11,04,40,6.20
2020,04,11,04,41,6.10
2020,04,11,04,42,6.10
2020,04,11,04,43,6.10
2020,04,11,04,44,6.10
2020,04,11,04,45,6.10
2020,04,11,04,46,6.10
2020,04,11,04,47,6.10
2020,04,11,04,48,6.00
2020,04,11,04,49,6.00
2020,04,11,04,50,6.00
2020,04,11,04,51,6.00
2020,04,11,04,52,6.00
2020,04,11,04,53,6.10
2020,04,11,04,54,6.10
2020,04,11,04,55,6.20
2020,04,11,04,56,6.20
2020,04,11,04,57,6.20
2020,04,11,04,58,6.20
2020,04,11,04,59,6.20
2020,04,11,05,00,6.10
2020,04,11,05,01,6.10
2020,04,11,05,02,6.10
2020,04,11,05,03,6.10
2020,04,11,05,04,6.10
2020,04,11,05,05,6.10
2020,04,11,05,06,6.10
2020,04,11,05,07,6.10
2020,04,11,05,08,6.10
2020,04,11,05,09,6.10
2020,04,11,05,10,6.10
2020,04,11,05,11,6.10
2020,04,11,05,12,6.10
2020,04,11,05,13,6.10
2020,04,11,05,14,6.10
2020,04,11,05,15,6.10
2020,04,11,05,16,6.10
2020,04,11,05,17,6.10
2020,04,11,05,18,6.10
2020,04,11,05,19,6.10
2020,04,11,05,20,6.10
2020,04,11,05,21,6.10
2020,04,11,05,22,6.10
2020,04,11,05,23,6.10
2020,04,11,05,24,6.10
2020,04,11,05,25,6.10
2020,04,11,05,26,6.10
2020,04,11,05,27,6.10
2020,04,11,05,28,6.00
2020,04,11,05,29,6.00
2020,04,11,05,30,6.00
2020,04,11,05,31,5.90
2020,04,11,05,32,5.90
2020,04,11,05,33,5.90
2020,04,11,05,34,5.90
2020,04,11,05,35,5.80
2020,04,11,05,36,5.80
2020,04,11,05,37,5.80
2020,04,11,05,38,5.80
2020,04,11,05,39,5.70
2020,04,11,05,40,5.70
2020,04,11,05,41,5.70
2020,04,11,05,42,5.70
2020,04,11,05,43,5.70
2020,04,11,05,44,5.70
2020,04,11,05,45,5.70
2020,04,11,05,46,5.70
2020,04,11,05,47,5.70
2020,04,11,05,48,5.70
2020,04,11,05,49,5.70
2020,04,11,05,50,5.70
2020,04,11,05,51,5.70
2020,04,11,05,52,5.60
2020,04,11,05,53,5.60
2020,04,11,05,54,5.60
2020,04,11,05,55,5.60
2020,04,11,05,56,5.60
2020,04,11,05,57,5.60
2020,04,11,05,58,5.60
2020,04,11,05,59,5.60
2020,04,11,06,00,5.60
2020,04,11,06,01,5.50
2020,04,11,06,02,5.60
2020,04,11,06,03,5.50
2020,04,11,06,04,5.50
2020,04,11,06,05,5.50
2020,04,11,06,06,5.50
2020,04,11,06,07,5.40
2020,04,11,06,08,5.40
2020,04,11,06,09,5.40
2020,04,11,06,10,5.40
2020,04,11,06,11,5.40
2020,04,11,06,12,5.40
2020,04,11,06,13,5.40
2020,04,11,06,14,5.40
2020,04,11,06,15,5.40
2020,04,11,06,16,5.40
2020,04,11,06,17,5.40
2020,04,11,06,18,5.40
2020,04,11,06,19,5.40
2020,04,11,06,20,5.40
2020,04,11,06,21,5.40
2020,04,11,06,22,5.40
2020,04,11,06,23,5.40
2020,04,11,06,24,5.40
2020,04,11,06,25,5.30
2020,04,11,06,26,5.30
2020,04,11,06,27,5.30
2020,04,11,06,28,5.30
2020,04,11,06,29,5.30
2020,04,11,06,30,5.30
2020,04,11,06,31,5.30
2020,04,11,06,32,5.30
2020,04,11,06,33,5.30
2020,04,11,06,34,5.30
2020,04,11,06,35,5.30
2020,04,11,06,36,5.20
2020,04,11,06,37,5.20
2020,04,11,06,38,5.20
2020,04,11,06,39,5.20
2020,04,11,06,40,5.20
2020,04,11,06,41,5.20
2020,04,11,06,42,5.20
2020,04,11,06,43,5.20
2020,04,11,06,44,5.10
2020,04,11,06,45,5.10
2020,04,11,06,46,5.10
2020,04,11,06,47,5.10
2020,04,11,06,48,5.10
2020,04,11,06,49,5.00
2020,04,11,06,50,5.00
2020,04,11,06,51,5.00
2020,04,11,06,52,5.00
2020,04,11,06,53,4.90
2020,04,11,06,54,4.90
2020,04,11,06,55,4.90
2020,04,11,06,56,4.90
2020,04,11,06,57,4.90
2020,04,11,06,58,4.80
2020,04,11,06,59,4.80
2020,04,11,07,00,4.80
2020,04,11,07,01,4.80
2020,04,11,07,02,4.80
2020,04,11,07,03,4.80
2020,04,11,07,04,4.80
2020,04,11,07,05,4.80
2020,04,11,07,06,4.80
2020,04,11,07,07,4.80
2020,04,11,07,08,4.70
2020,04,11,07,09,4.70
2020,04,11,07,10,4.70
2020,04,11,07,11,4.70
2020,04,11,07,12,4.70
2020,04,11,07,13,4.70
2020,04,11,07,14,4.70
2020,04,11,07,15,4.70
2020,04,11,07,16,4.70
2020,04,11,07,17,4.70
2020,04,11,07,18,4.80
2020,04,11,07,19,4.80
2020,04,11,07,20,4.80
2020,04,11,07,21,4.80
2020,04,11,07,22,4.80
2020,04,11,07,23,4.80
2020,04,11,07,24,4.80
2020,04,11,07,25,4.80
2020,04,11,07,26,4.80
2020,04,11,07,27,4.80
2020,04,11,07,28,4.80
2020,04,11,07,29,4.80
2020,04,11,07,30,4.90
2020,04,11,07,31,4.90
2020,04,11,07,32,4.90
2020,04,11,07,33,5.00
2020,04,11,07,34,5.10
2020,04,11,07,35,5.10
2020,04,11,07,36,5.10
2020,04,11,07,37,5.20
2020,04,11,07,38,5.20
2020,04,11,07,39,5.20
2020,04,11,07,40,5.20
2020,04,11,07,41,5.30
2020,04,11,07,42,5.30
2020,04,11,07,43,5.30
2020,04,11,07,44,5.40
2020,04,11,07,45,5.40
2020,04,11,07,46,5.50
2020,04,11,07,47,5.50
2020,04,11,07,48,5.60
2020,04,11,07,49,5.60
2020,04,11,07,50,5.60
2020,04,11,07,51,5.60
2020,04,11,07,52,5.60
2020,04,11,07,53,5.70
2020,04,11,07,54,5.70
2020,04,11,07,55,5.70
2020,04,11,07,56,5.80
2020,04,11,07,57,5.80
2020,04,11,07,58,5.80
2020,04,11,07,59,5.80
2020,04,11,08,00,5.80
2020,04,11,08,01,5.80
2020,04,11,08,02,5.80
2020,04,11,08,03,5.90
2020,04,11,08,04,5.90
2020,04,11,08,05,5.90
2020,04,11,08,06,5.90
2020,04,11,08,07,6.00
2020,04,11,08,08,6.00
2020,04,11,08,09,6.00
2020,04,11,08,10,6.00
2020,04,11,08,11,6.10
2020,04,11,08,12,6.10
2020,04,11,08,13,6.10
2020,04,11,08,14,6.10
2020,04,11,08,15,6.20
2020,04,11,08,16,6.20
2020,04,11,08,17,6.20
2020,04,11,08,18,6.20
2020,04,11,08,19,6.20
2020,04,11,08,20,6.20
2020,04,11,08,21,6.20
2020,04,11,08,22,6.20
2020,04,11,08,23,6.20
2020,04,11,08,24,6.20
2020,04,11,08,25,6.30
2020,04,11,08,26,6.30
2020,04,11,08,27,6.30
2020,04,11,08,28,6.30
2020,04,11,08,29,6.30
2020,04,11,08,30,6.30
2020,04,11,08,31,6.30
2020,04,11,08,32,6.30
2020,04,11,08,33,6.30
2020,04,11,08,34,6.30
2020,04,11,08,35,6.30
2020,04,11,08,36,6.30
2020,04,11,08,37,6.40
2020,04,11,08,38,6.40
2020,04,11,08,39,6.40
2020,04,11,08,40,6.40
2020,04,11,08,41,6.40
2020,04,11,08,42,6.50
2020,04,11,08,43,6.50
2020,04,11,08,44,6.50
2020,04,11,08,45,6.50
2020,04,11,08,46,6.50
2020,04,11,08,47,6.50
2020,04,11,08,48,6.50
2020,04,11,08,49,6.50
2020,04,11,08,50,6.60
2020,04,11,08,51,6.60
2020,04,11,08,52,6.60
2020,04,11,08,53,6.60
2020,04,11,08,54,6.60
2020,04,11,08,55,6.60
2020,04,11,08,56,6.60
2020,04,11,08,57,6.70
2020,04,11,08,58,6.70
2020,04,11,08,59,6.70
2020,04,11,09,00,6.70
2020,04,11,09,01,6.70
2020,04,11,09,02,6.70
2020,04,11,09,03,6.70
2020,04,11,09,04,6.70
2020,04,11,09,05,6.80
2020,04,11,09,06,6.80
2020,04,11,09,07,6.80
2020,04,11,09,08,6.80
2020,04,11,09,09,6.80
2020,04,11,09,10,6.80
2020,04,11,09,11,6.80
2020,04,11,09,12,6.80
2020,04,11,09,13,6.90
2020,04,11,09,14,6.90
2020,04,11,09,15,6.90
2020,04,11,09,16,6.90
2020,04,11,09,17,6.90
2020,04,11,09,18,6.90
2020,04,11,09,19,6.90
2020,04,11,09,20,7.00
2020,04,11,09,21,7.00
2020,04,11,09,22,7.00
2020,04,11,09,23,7.00
2020,04,11,09,24,7.00
2020,04,11,09,25,7.00
2020,04,11,09,26,7.00
2020,04,11,09,27,7.00
2020,04,11,09,28,7.00
2020,04,11,09,29,7.00
2020,04,11,09,30,7.10
2020,04,11,09,31,7.10
2020,04,11,09,32,7.10
2020,04,11,09,33,7.10
2020,04,11,09,34,7.10
2020,04,11,09,35,7.10
2020,04,11,09,36,7.10
2020,04,11,09,37,7.10
2020,04,11,09,38,7.20
2020,04,11,09,39,7.20
2020,04,11,09,40,7.30
2020,04,11,09,41,7.30
2020,04,11,09,42,7.30
2020,04,11,09,43,7.30
2020,04,11,09,44,7.40
2020,04,11,09,45,7.50
2020,04,11,09,46,7.60
2020,04,11,09,47,7.70
2020,04,11,09,48,7.70
2020,04,11,09,49,7.90
2020,04,11,09,50,8.00
2020,04,11,09,51,8.20
2020,04,11,09,52,8.30
2020,04,11,09,53,8.40
2020,04,11,09,54,8.50
2020,04,11,09,55,8.60
2020,04,11,09,56,8.60
2020,04,11,09,57,8.70
2020,04,11,09,58,8.80
2020,04,11,09,59,8.90
2020,04,11,10,00,9.00
2020,04,11,10,01,9.10
2020,04,11,10,02,9.10
2020,04,11,10,03,9.20
2020,04,11,10,04,9.30
2020,04,11,10,05,9.30
2020,04,11,10,06,9.40
2020,04,11,10,07,9.40
2020,04,11,10,08,9.40
2020,04,11,10,09,9.50
2020,04,11,10,10,9.50
2020,04,11,10,11,9.60
2020,04,11,10,12,9.60
2020,04,11,10,13,9.70
2020,04,11,10,14,9.70
2020,04,11,10,15,9.70
2020,04,11,10,16,9.70
2020,04,11,10,17,9.70
2020,04,11,10,18,9.70
2020,04,11,10,19,9.70
2020,04,11,10,20,9.80
2020,04,11,10,21,9.80
2020,04,11,10,22,9.80
2020,04,11,10,23,9.80
2020,04,11,10,24,9.80
2020,04,11,10,25,9.80
2020,04,11,10,26,9.90
2020,04,11,10,27,9.90
2020,04,11,10,28,9.90
2020,04,11,10,29,10.00
2020,04,11,10,30,9.90
2020,04,11,10,31,9.90
2020,04,11,10,32,10.00
2020,04,11,10,33,10.00
2020,04,11,10,34,10.00
2020,04,11,10,35,10.00
2020,04,11,10,36,10.00
2020,04,11,10,37,10.10
2020,04,11,10,38,10.10
2020,04,11,10,39,10.00
2020,04,11,10,40,10.00
2020,04,11,10,41,10.00
2020,04,11,10,42,10.10
2020,04,11,10,43,10.10
2020,04,11,10,44,10.10
2020,04,11,10,45,10.20
2020,04,11,10,46,10.20
2020,04,11,10,47,10.30
2020,04,11,10,48,10.30
2020,04,11,10,49,10.40
2020,04,11,10,50,10.50
2020,04,11,10,51,10.60
2020,04,11,10,52,10.60
2020,04,11,10,53,10.70
2020,04,11,10,54,10.70
2020,04,11,10,55,10.80
2020,04,11,10,56,10.80
2020,04,11,10,57,10.80
2020,04,11,10,58,10.90
2020,04,11,10,59,10.90
2020,04,11,11,00,10.90
2020,04,11,11,01,10.90
2020,04,11,11,02,10.90
2020,04,11,11,03,10.90
2020,04,11,11,04,10.90
2020,04,11,11,05,10.90
2020,04,11,11,06,10.90
2020,04,11,11,07,10.80
2020,04,11,11,08,10.90
2020,04,11,11,09,10.90
2020,04,11,11,10,10.90
2020,04,11,11,11,10.90
2020,04,11,11,12,11.00
2020,04,11,11,13,10.90
2020,04,11,11,14,10.90
2020,04,11,11,15,10.90
2020,04,11,11,16,10.90
2020,04,11,11,17,10.90
2020,04,11,11,18,10.90
2020,04,11,11,19,11.00
2020,04,11,11,20,11.00
2020,04,11,11,21,11.00
2020,04,11,11,22,11.00
2020,04,11,11,23,11.00
2020,04,11,11,24,11.00
2020,04,11,11,25,11.00
2020,04,11,11,26,11.00
2020,04,11,11,27,11.00
2020,04,11,11,28,11.00
2020,04,11,11,29,10.90
2020,04,11,11,30,11.00
2020,04,11,11,31,11.00
2020,04,11,11,32,11.10
2020,04,11,11,33,11.10
2020,04,11,11,34,11.10
2020,04,11,11,35,11.10
2020,04,11,11,36,11.10
2020,04,11,11,37,11.20
2020,04,11,11,38,11.20
2020,04,11,11,39,11.20
2020,04,11,11,40,11.20
2020,04,11,11,41,11.20
2020,04,11,11,42,11.30
2020,04,11,11,43,11.30
2020,04,11,11,44,11.40
2020,04,11,11,45,11.50
2020,04,11,11,46,11.60
2020,04,11,11,47,11.70
2020,04,11,11,48,11.90
2020,04,11,11,49,12.00
2020,04,11,11,50,12.10
2020,04,11,11,51,12.20
2020,04,11,11,52,12.30
2020,04,11,11,53,12.20
2020,04,11,11,54,12.10
2020,04,11,11,55,12.00
2020,04,11,11,56,11.80
2020,04,11,11,57,11.70
2020,04,11,11,58,11.60
2020,04,11,11,59,11.60
2020,04,11,12,00,11.60
2020,04,11,12,01,11.50
2020,04,11,12,02,11.50
2020,04,11,12,03,11.50
2020,04,11,12,04,11.40
2020,04,11,12,05,11.40
2020,04,11,12,06,11.40
2020,04,11,12,07,11.50
2020,04,11,12,08,11.50
2020,04,11,12,09,11.60
2020,04,11,12,10,11.60
2020,04,11,12,11,11.70
2020,04,11,12,12,11.70
2020,04,11,12,13,11.80
2020,04,11,12,14,11.80
2020,04,11,12,15,11.90
2020,04,11,12,16,12.00
2020,04,11,12,17,12.20
2020,04,11,12,18,12.30
2020,04,11,12,19,12.40
2020,04,11,12,20,12.50
2020,04,11,12,21,12.60
2020,04,11,12,22,12.60
2020,04,11,12,23,12.60
2020,04,11,12,24,12.70
2020,04,11,12,25,12.70
2020,04,11,12,26,12.80
2020,04,11,12,27,12.80
2020,04,11,12,28,12.80
2020,04,11,12,29,12.90
2020,04,11,12,30,13.00
2020,04,11,12,31,13.20
2020,04,11,12,32,13.30
2020,04,11,12,33,13.40
2020,04,11,12,34,13.50
2020,04,11,12,35,13.60
2020,04,11,12,36,13.80
2020,04,11,12,37,13.80
2020,04,11,12,38,13.80
2020,04,11,12,39,13.80
2020,04,11,12,40,13.80
2020,04,11,12,41,13.90
2020,04,11,12,42,13.90
2020,04,11,12,43,13.90
2020,04,11,12,44,13.90
2020,04,11,12,45,13.80
2020,04,11,12,46,13.70
2020,04,11,12,47,13.70
2020,04,11,12,48,13.70
2020,04,11,12,49,13.70
2020,04,11,12,50,13.80
2020,04,11,12,51,13.90
2020,04,11,12,52,13.90
2020,04,11,12,53,14.00
2020,04,11,12,54,14.00
2020,04,11,12,55,14.00
2020,04,11,12,56,14.00
2020,04,11,12,57,13.90
2020,04,11,12,58,13.70
2020,04,11,12,59,13.60
2020,04,11,13,00,13.60
2020,04,11,13,01,13.50
2020,04,11,13,02,13.50
2020,04,11,13,03,13.60
2020,04,11,13,04,13.60
2020,04,11,13,05,13.70
2020,04,11,13,06,13.80
2020,04,11,13,07,13.90
2020,04,11,13,08,14.00
2020,04,11,13,09,14.00
2020,04,11,13,10,14.00
2020,04,11,13,11,14.10
2020,04,11,13,12,14.10
2020,04,11,13,13,14.10
2020,04,11,13,14,14.00
2020,04,11,13,15,14.00
2020,04,11,13,16,14.00
2020,04,11,13,17,14.00
2020,04,11,13,18,14.10
2020,04,11,13,19,14.10
2020,04,11,13,20,14.20
2020,04,11,13,21,14.30
2020,04,11,13,22,14.40
2020,04,11,13,23,14.40
2020,04,11,13,24,14.50
2020,04,11,13,25,14.70
2020,04,11,13,26,14.70
2020,04,11,13,27,14.90
2020,04,11,13,28,15.00
2020,04,11,13,29,15.10
2020,04,11,13,30,15.10
2020,04,11,13,31,15.00
2020,04,11,13,32,14.90
2020,04,11,13,33,14.80
2020,04,11,13,34,14.70
2020,04,11,13,35,14.80
2020,04,11,13,36,14.90
2020,04,11,13,37,15.00
2020,04,11,13,38,15.20
2020,04,11,13,39,15.30
2020,04,11,13,40,15.20
2020,04,11,13,41,15.20
2020,04,11,13,42,15.20
2020,04,11,13,43,15.20
2020,04,11,13,44,15.10
2020,04,11,13,45,14.80
2020,04,11,13,46,14.60
2020,04,11,13,47,14.50
2020,04,11,13,48,14.40
2020,04,11,13,49,14.50
2020,04,11,13,50,14.60
2020,04,11,13,51,14.60
2020,04,11,13,52,14.70
2020,04,11,13,53,14.70
2020,04,11,13,54,14.80
2020,04,11,13,55,14.90
2020,04,11,13,56,15.10
2020,04,11,13,57,15.20
2020,04,11,13,58,15.30
2020,04,11,13,59,15.30
2020,04,11,14,00,15.30
2020,04,11,14,01,15.40
2020,04,11,14,02,15.40
2020,04,11,14,03,15.20
2020,04,11,14,04,15.10
2020,04,11,14,05,15.00
2020,04,11,14,06,14.80
2020,04,11,14,07,14.70
2020,04,11,14,08,14.80
2020,04,11,14,09,14.80
2020,04,11,14,10,14.90
2020,04,11,14,11,14.90
2020,04,11,14,12,14.90
2020,04,11,14,13,14.90
2020,04,11,14,14,14.90
2020,04,11,14,15,15.00
2020,04,11,14,16,15.10
2020,04,11,14,17,15.20
2020,04,11,14,18,15.30
2020,04,11,14,19,15.30
2020,04,11,14,20,15.40
2020,04,11,14,21,15.30
2020,04,11,14,22,15.30
2020,04,11,14,23,15.20
2020,04,11,14,24,15.20
2020,04,11,14,25,15.10
2020,04,11,14,26,15.10
2020,04,11,14,27,15.10
2020,04,11,14,28,15.10
2020,04,11,14,29,15.10
2020,04,11,14,30,15.10
2020,04,11,14,31,15.10
2020,04,11,14,32,15.10
2020,04,11,14,33,15.20
2020,04,11,14,34,15.30
2020,04,11,14,35,15.50
2020,04,11,14,36,15.60
2020,04,11,14,37,15.60
2020,04,11,14,38,15.40
2020,04,11,14,39,15.30
2020,04,11,14,40,15.20
2020,04,11,14,41,15.10
2020,04,11,14,42,15.10
2020,04,11,14,43,15.10
2020,04,11,14,44,15.20
2020,04,11,14,45,15.40
2020,04,11,14,46,15.50
2020,04,11,14,47,15.50
2020,04,11,14,48,15.50
2020,04,11,14,49,15.50
2020,04,11,14,50,15.50
2020,04,11,14,51,15.60
2020,04,11,14,52,15.60
2020,04,11,14,53,15.70
2020,04,11,14,54,15.80
2020,04,11,14,55,15.90
2020,04,11,14,56,15.90
2020,04,11,14,57,15.90
2020,04,11,14,58,15.80
2020,04,11,14,59,15.70
2020,04,11,15,00,15.60
2020,04,11,15,01,15.50
2020,04,11,15,02,15.40
2020,04,11,15,03,15.30
2020,04,11,15,04,15.30
2020,04,11,15,05,15.30
2020,04,11,15,06,15.30
2020,04,11,15,07,15.30
2020,04,11,15,08,15.20
2020,04,11,15,09,15.20
2020,04,11,15,10,15.20
2020,04,11,15,11,15.30
2020,04,11,15,12,15.30
2020,04,11,15,13,15.40
2020,04,11,15,14,15.40
2020,04,11,15,15,15.40
2020,04,11,15,16,15.40
2020,04,11,15,17,15.40
2020,04,11,15,18,15.40
2020,04,11,15,19,15.40
2020,04,11,15,20,15.30
2020,04,11,15,21,15.30
2020,04,11,15,22,15.20
2020,04,11,15,23,15.20
2020,04,11,15,24,15.20
2020,04,11,15,25,15.30
2020,04,11,15,26,15.30
2020,04,11,15,27,15.20
2020,04,11,15,28,15.20
2020,04,11,15,29,15.20
2020,04,11,15,30,15.20
2020,04,11,15,31,15.10
2020,04,11,15,32,15.10
2020,04,11,15,33,15.20
2020,04,11,15,34,15.20
2020,04,11,15,35,15.30
2020,04,11,15,36,15.30
2020,04,11,15,37,15.20
2020,04,11,15,38,15.00
2020,04,11,15,39,15.00
2020,04,11,15,40,15.00
2020,04,11,15,41,15.00
2020,04,11,15,42,15.00
2020,04,11,15,43,15.10
2020,04,11,15,44,15.20
2020,04,11,15,45,15.30
2020,04,11,15,46,15.50
2020,04,11,15,47,15.70
2020,04,11,15,48,15.80
2020,04,11,15,49,15.90
2020,04,11,15,50,15.90
2020,04,11,15,51,15.90
2020,04,11,15,52,15.90
2020,04,11,15,53,15.80
2020,04,11,15,54,15.80
2020,04,11,15,55,15.80
2020,04,11,15,56,15.90
2020,04,11,15,57,15.90
2020,04,11,15,58,15.90
2020,04,11,15,59,16.00
2020,04,11,16,00,15.90
2020,04,11,16,01,15.70
2020,04,11,16,02,15.70
2020,04,11,16,03,15.60
2020,04,11,16,04,15.60
2020,04,11,16,05,15.60
2020,04,11,16,06,15.60
2020,04,11,16,07,15.60
2020,04,11,16,08,15.50
2020,04,11,16,09,15.40
2020,04,11,16,10,15.30
2020,04,11,16,11,15.20
2020,04,11,16,12,15.20
2020,04,11,16,13,15.20
2020,04,11,16,14,15.20
2020,04,11,16,15,15.40
2020,04,11,16,16,15.50
2020,04,11,16,17,15.80
2020,04,11,16,18,15.90
2020,04,11,16,19,16.00
2020,04,11,16,20,16.00
2020,04,11,16,21,15.90
2020,04,11,16,22,15.80
2020,04,11,16,23,15.80
2020,04,11,16,24,15.80
2020,04,11,16,25,15.80
2020,04,11,16,26,15.80
2020,04,11,16,27,15.80
2020,04,11,16,28,15.70
2020,04,11,16,29,15.70
2020,04,11,16,30,15.70
2020,04,11,16,31,15.90
2020,04,11,16,32,16.00
2020,04,11,16,33,16.10
2020,04,11,16,34,16.10
2020,04,11,16,35,16.10
2020,04,11,16,36,16.20
2020,04,11,16,37,16.20
2020,04,11,16,38,16.30
2020,04,11,16,39,16.30
2020,04,11,16,40,16.30
2020,04,11,16,41,16.30
2020,04,11,16,42,16.20
2020,04,11,16,43,16.10
2020,04,11,16,44,16.10
2020,04,11,16,45,16.10
2020,04,11,16,46,16.00
2020,04,11,16,47,15.90
2020,04,11,16,48,15.90
2020,04,11,16,49,15.90
2020,04,11,16,50,15.90
2020,04,11,16,51,15.90
2020,04,11,16,52,15.90
2020,04,11,16,53,15.90
2020,04,11,16,54,15.90
2020,04,11,16,55,15.90
2020,04,11,16,56,15.90
2020,04,11,16,57,15.90
2020,04,11,16,58,16.00
2020,04,11,16,59,16.00
2020,04,11,17,00,16.00
2020,04,11,17,01,16.10
2020,04,11,17,02,16.20
2020,04,11,17,03,16.30
2020,04,11,17,04,16.20
2020,04,11,17,05,16.10
2020,04,11,17,06,16.10
2020,04,11,17,07,16.20
2020,04,11,17,08,16.20
2020,04,11,17,09,16.30
2020,04,11,17,10,16.30
2020,04,11,17,11,16.30
2020,04,11,17,12,16.30
2020,04,11,17,13,16.30
2020,04,11,17,14,16.40
2020,04,11,17,15,16.40
2020,04,11,17,16,16.30
2020,04,11,17,17,16.30
2020,04,11,17,18,16.30
2020,04,11,17,19,16.20
2020,04,11,17,20,16.20
2020,04,11,17,21,16.20
2020,04,11,17,22,16.10
2020,04,11,17,23,16.10
2020,04,11,17,24,16.20
2020,04,11,17,25,16.20
2020,04,11,17,26,16.20
2020,04,11,17,27,16.20
2020,04,11,17,28,16.20
2020,04,11,17,29,16.10
2020,04,11,17,30,16.10
2020,04,11,17,31,16.10
2020,04,11,17,32,16.00
2020,04,11,17,33,16.00
2020,04,11,17,34,15.90
2020,04,11,17,35,15.90
2020,04,11,17,36,15.90
2020,04,11,17,37,15.90
2020,04,11,17,38,15.90
2020,04,11,17,39,15.90
2020,04,11,17,40,15.90
2020,04,11,17,41,15.90
2020,04,11,17,42,15.90
2020,04,11,17,43,15.90
2020,04,11,17,44,15.90
2020,04,11,17,45,15.80
2020,04,11,17,46,15.80